Amateur Radio Satellites - All Passes

Search period start: 24 May 2013 11:19
Search period end: 25 May 2013 11:19
Location: Sperry Observatory, 40.6664°N, 74.3236°W

Satellite Date Start Highest point End Downlink Frequencies (MHz)
Time Altitude Azimuth
MaSat-1 24 May 11:35:37 11:38:47 62° 248° (WSW) 11:41:25 437.345 MHz
HO-68 24 May 11:55:39 12:01:48 32° 298° (WNW) 12:07:57 435.675 MHz FM
UOSAT-12 24 May 12:05:47 12:10:05 42° 308° (NW) 12:14:26 437.025 FM, 437.400 FM
OPAL 24 May 12:06:02 12:10:52 50° 291° (WNW) 12:15:38 ?
Oscar 16 24 May 12:13:21 12:14:08 10° 58° (ENE) 12:14:55 437.025 USB, Beacon 2401.1428
Oscar 11 24 May 12:27:42 12:28:43 11° 298° (WNW) 12:29:43 145.825 FM, Beacon 2401.500 USB
ITAMSAT 1 24 May 12:31:48 12:33:17 11° 58° (ENE) 12:34:47 435.822 SSB
PANSAT 24 May 12:33:10 12:35:10 14° 178° (S) 12:37:09 not established
Saudisat 1A 24 May 12:37:05 12:38:37 12° 36° (NE) 12:40:10 436.775 MHz
JAS-2 24 May 13:02:05 13:04:21 12° 309° (NW) 13:06:33 435.800 - 435.900 CW/SSB, 435.910 FM
Oscar 19 24 May 13:08:39 13:13:05 29° 67° (ENE) 13:17:33 437.125 CW, 437.150 USB
Uribyol 2 24 May 13:09:11 13:13:26 26° 66° (ENE) 13:17:42 436.500 FM
Oscar 16 24 May 13:47:25 13:52:37 79° 75° (ENE) 13:57:50 437.025 USB, Beacon 2401.1428
AO-27 24 May 14:00:37 14:05:46 77° 74° (ENE) 14:10:59 436.795 MHz FM
ITAMSAT 1 24 May 14:06:48 14:11:58 85° 75° (ENE) 14:17:11 435.822 SSB
PANSAT 24 May 14:13:50 14:14:46 11° 191° (SSW) 14:15:42 not established
Saudisat 1A 24 May 14:14:40 14:19:13 68° 56° (NE) 14:23:39 436.775 MHz
RS-15 24 May 14:15:12 14:21:08 15° 97° (E) 14:26:56 29.354 - 29.394 USB, Beacon 29.352 USB
Uosat F 24 May 14:32:24 14:36:14 23° 65° (ENE) 14:40:04 435.120 FM
Gurwin Techsat 1B 24 May 14:36:34 14:40:28 21° 64° (ENE) 14:44:23 435.225 FM
AO-Echo 24 May 14:37:02 14:41:45 54° 73° (ENE) 14:46:23 ?
Sapphire 24 May 14:42:26 14:45:00 13° 39° (NE) 14:47:34 437.095 MHz 1200 baud AX-25 AFSK
Oscar 19 24 May 14:47:39 14:52:20 34° 263° (W) 14:57:03 437.125 CW, 437.150 USB
Uribyol 2 24 May 14:47:56 14:52:43 38° 262° (W) 14:57:34 436.500 FM
AO-7 24 May 15:10:49 15:16:38 22° 52° (NE) 15:22:27 29.400 - 29.500 MHz
Oscar 16 24 May 15:30:38 15:32:33 12° 271° (W) 15:34:29 437.025 USB, Beacon 2401.1428
AO-27 24 May 15:43:51 15:45:52 12° 271° (W) 15:47:53 436.795 MHz FM
ITAMSAT 1 24 May 15:51:00 15:52:07 11° 271° (W) 15:53:15 435.822 SSB
PCSat 24 May 15:51:05 15:56:13 41° 54° (NE) 16:01:19 145.825 MHz
TMSAT-1 24 May 15:51:47 15:57:01 68° 74° (ENE) 16:02:17 436.925 FM
Saudisat 1A 24 May 15:56:21 15:58:18 13° 252° (WSW) 16:00:15 436.775 MHz
SO-50 24 May 16:06:32 16:09:49 19° 43° (NE) 16:13:04 436.795 FM
Uosat F 24 May 16:10:02 16:14:46 42° 261° (W) 16:19:31 435.120 FM
Gurwin Techsat 1B 24 May 16:14:56 16:20:04 50° 260° (W) 16:25:15 435.225 FM
AO-Echo 24 May 16:18:04 16:20:52 15° 268° (W) 16:23:38 ?
RS-15 24 May 16:19:29 16:31:27 71° 116° (ESE) 16:42:55 29.354 - 29.394 USB, Beacon 29.352 USB
Sapphire 24 May 16:24:00 16:29:27 71° 59° (ENE) 16:34:51 437.095 MHz 1200 baud AX-25 AFSK
AO-7 24 May 17:00:03 17:08:21 90° 252° (WSW) 17:16:44 29.400 - 29.500 MHz
JAS-1B 24 May 17:30:42 17:32:20 11° 52° (NE) 17:33:56 435.800 - 435.900 CW/SSB
TMSAT-1 24 May 17:34:34 17:37:26 15° 270° (W) 17:40:18 436.925 FM
PCSat 24 May 17:34:52 17:39:28 29° 252° (WSW) 17:44:02 145.825 MHz
SO-50 24 May 17:46:21 17:50:49 58° 242° (WSW) 17:55:12 436.795 FM
Hamsat 24 May 18:06:25 18:08:55 16° 65° (ENE) 18:11:27 145.90 MHz
Sapphire 24 May 18:09:10 18:12:14 15° 256° (WSW) 18:15:18 437.095 MHz 1200 baud AX-25 AFSK
RS-15 24 May 18:33:48 18:44:45 40° 320° (NW) 18:55:20 29.354 - 29.394 USB, Beacon 29.352 USB
UOSAT-12 24 May 18:56:08 18:59:36 21° 44° (NE) 19:03:04 437.025 FM, 437.400 FM
AO-7 24 May 18:57:03 19:02:09 17° 270° (W) 19:07:18 29.400 - 29.500 MHz
SO-67 24 May 19:07:27 19:10:07 20° 69° (ENE) 19:12:47 435.3500 MHz FM
JAS-1B 24 May 19:12:48 19:21:32 54° 70° (ENE) 19:28:59 435.800 - 435.900 CW/SSB
STRAND 1 24 May 19:22:12 19:27:22 74° 103° (ESE) 19:32:30 ?
Hamsat 24 May 19:40:34 19:44:36 45° 261° (W) 19:48:43 145.90 MHz
JAS-2 24 May 19:44:12 19:47:03 12° 51° (NE) 19:49:53 435.800 - 435.900 CW/SSB, 435.910 FM
UOSAT-12 24 May 20:35:36 20:40:05 54° 242° (WSW) 20:44:34 437.025 FM, 437.400 FM
HO-68 24 May 20:35:55 20:42:19 38° 63° (ENE) 20:48:44 435.675 MHz FM
SO-67 24 May 20:40:33 20:43:27 23° 265° (W) 20:46:21 435.3500 MHz FM
RS-15 24 May 20:53:38 21:01:37 20° 353° (N) 21:09:24 29.354 - 29.394 USB, Beacon 29.352 USB
STRAND 1 24 May 21:03:13 21:05:56 15° 300° (WNW) 21:08:40 ?
JAS-1B 24 May 21:03:59 21:12:08 35° 263° (W) 21:19:18 435.800 - 435.900 CW/SSB
JAS-2 24 May 21:22:56 21:30:29 58° 70° (ENE) 21:38:05 435.800 - 435.900 CW/SSB, 435.910 FM
OPAL 24 May 21:42:23 21:47:01 34° 66° (ENE) 21:51:38 ?
Oscar 11 24 May 21:43:41 21:47:54 57° 74° (ENE) 21:52:10 145.825 FM, Beacon 2401.500 USB
HO-68 24 May 22:23:12 22:29:53 42° 261° (W) 22:36:36 435.675 MHz FM
KITSAT 1 24 May 22:37:25 22:45:19 63° 114° (ESE) 22:53:17 435.175 FM
JAS-2 24 May 23:09:03 23:15:43 31° 267° (W) 23:22:31 435.800 - 435.900 CW/SSB, 435.910 FM
RS-15 24 May 23:09:55 23:19:20 29° 29° (NNE) 23:28:26 29.354 - 29.394 USB, Beacon 29.352 USB
OPAL 24 May 23:21:24 23:25:54 29° 262° (W) 23:30:23 ?
Oscar 11 24 May 23:22:45 23:24:29 12° 270° (W) 23:26:15 145.825 FM, Beacon 2401.500 USB
AO-40 25 May 00:02:24 03:39:57 27° 135° (SE) 05:25:13 Beacon 2401.320
MaSat-1 25 May 00:24:33 00:29:48 23° 105° (ESE) 00:34:26 437.345 MHz
KITSAT 1 25 May 00:34:02 00:41:12 34° 315° (NW) 00:48:26 435.175 FM
RS-15 25 May 01:22:31 01:33:43 81° 57° (ENE) 01:44:36 29.354 - 29.394 USB, Beacon 29.352 USB
ISS 25 May 01:42:16 01:45:19 36° 137° (SE) 01:48:24 145.800 FM
Oscar 16 25 May 02:00:08 02:04:35 29° 95° (E) 02:08:59 437.025 USB, Beacon 2401.1428
MaSat-1 25 May 02:04:47 02:11:43 64° 297° (WNW) 02:17:22 437.345 MHz
AO-27 25 May 02:14:32 02:19:02 28° 96° (E) 02:23:30 436.795 MHz FM
ITAMSAT 1 25 May 02:20:29 02:25:08 32° 96° (E) 02:29:45 435.822 SSB
KITSAT 1 25 May 02:36:36 02:39:37 12° 343° (NNW) 02:42:40 435.175 FM
AO-Echo 25 May 02:45:26 02:48:38 18° 93° (E) 02:51:52 ?
Oscar 19 25 May 02:59:03 03:04:15 88° 104° (ESE) 03:09:23 437.125 CW, 437.150 USB
Uribyol 2 25 May 03:00:33 03:05:49 79° 103° (ESE) 03:11:03 436.500 FM
ISS 25 May 03:19:06 03:22:04 30° 334° (NNW) 03:25:03 145.800 FM
RS-15 25 May 03:36:27 03:44:42 26° 258° (WSW) 03:52:54 29.354 - 29.394 USB, Beacon 29.352 USB
Oscar 16 25 May 03:39:19 03:43:57 34° 292° (WNW) 03:48:32 437.025 USB, Beacon 2401.1428
MaSat-1 25 May 03:52:06 03:54:32 12° 312° (NW) 03:56:47 437.345 MHz
AO-27 25 May 03:53:51 03:58:34 35° 292° (WNW) 04:03:16 436.795 MHz FM
ITAMSAT 1 25 May 03:59:59 04:04:34 32° 293° (WNW) 04:09:09 435.822 SSB
TMSAT-1 25 May 04:08:32 04:13:03 28° 95° (E) 04:17:32 436.925 FM
Uosat F 25 May 04:17:49 04:22:48 61° 101° (ESE) 04:27:46 435.120 FM
Saudisat 1A 25 May 04:22:49 04:26:06 20° 111° (ESE) 04:29:24 436.775 MHz
AO-Echo 25 May 04:23:05 04:27:40 48° 288° (WNW) 04:32:20 ?
Gurwin Techsat 1B 25 May 04:31:18 04:36:37 68° 102° (ESE) 04:41:54 435.225 FM
KITSAT 1 25 May 04:36:57 04:39:37 12° 15° (NNE) 04:42:18 435.175 FM
Oscar 19 25 May 04:40:55 04:42:50 12° 301° (WNW) 04:44:44 437.125 CW, 437.150 USB
Uribyol 2 25 May 04:42:02 04:44:37 14° 300° (WNW) 04:47:12 436.500 FM
ISS 25 May 04:57:54 04:59:36 13° 354° (N) 05:01:18 145.800 FM
STRAND 1 25 May 05:02:17 05:04:35 13° 60° (ENE) 05:06:53 ?
AO-7 25 May 05:02:35 05:09:50 32° 96° (E) 05:17:01 29.400 - 29.500 MHz
TMSAT-1 25 May 05:48:11 05:53:01 37° 291° (WNW) 05:57:50 436.925 FM
Uosat F 25 May 05:57:59 06:01:06 17° 298° (WNW) 06:04:14 435.120 FM
Saudisat 1A 25 May 06:01:03 06:05:27 47° 307° (NW) 06:09:55 436.775 MHz
Gurwin Techsat 1B 25 May 06:12:49 06:16:01 16° 299° (WNW) 06:19:12 435.225 FM
KITSAT 1 25 May 06:31:08 06:38:13 31° 43° (NE) 06:45:15 435.175 FM
PCSat 25 May 06:32:48 06:37:45 38° 111° (ESE) 06:42:45 145.825 MHz
ISS 25 May 06:35:11 06:37:22 16° 14° (NNE) 06:39:34 145.800 FM
STRAND 1 25 May 06:38:00 06:43:06 81° 257° (WSW) 06:48:14 ?
AO-7 25 May 06:54:49 07:02:57 58° 294° (WNW) 07:11:04 29.400 - 29.500 MHz
Sapphire 25 May 07:05:24 07:10:45 71° 116° (ESE) 07:16:10 437.095 MHz 1200 baud AX-25 AFSK
Hamsat 25 May 07:27:25 07:31:21 32° 96° (E) 07:35:17 145.90 MHz
SO-50 25 May 08:01:03 08:05:41 50° 118° (ESE) 08:10:17 436.795 FM
SO-67 25 May 08:07:15 08:10:20 26° 96° (E) 08:13:23 435.3500 MHz FM
ISS 25 May 08:11:20 08:14:39 56° 33° (NNE) 08:17:57 145.800 FM
PCSat 25 May 08:16:26 08:21:14 32° 309° (NW) 08:26:04 145.825 MHz
KITSAT 1 25 May 08:26:11 08:34:15 70° 244° (WSW) 08:42:17 435.175 FM
JAS-1B 25 May 08:49:49 08:55:47 78° 103° (ESE) 09:01:26 435.800 - 435.900 CW/SSB
AO-7 25 May 08:50:29 08:53:59 13° 315° (NW) 08:57:29 29.400 - 29.500 MHz
Sapphire 25 May 08:50:51 08:54:44 20° 315° (NW) 08:58:39 437.095 MHz 1200 baud AX-25 AFSK
Hamsat 25 May 09:03:50 09:07:15 23° 292° (WNW) 09:10:40 145.90 MHz
Oscar 11 25 May 09:34:42 09:35:42 11° 90° (E) 09:36:42 145.825 FM, Beacon 2401.500 USB
SO-67 25 May 09:41:07 09:43:36 18° 291° (WNW) 09:46:05 435.3500 MHz FM
SO-50 25 May 09:42:48 09:46:35 23° 315° (NW) 09:50:19 436.795 FM
ISS 25 May 09:48:51 09:51:04 17° 229° (SW) 09:53:16 145.800 FM
HO-68 25 May 09:50:49 09:57:25 38° 98° (E) 10:03:59 435.675 MHz FM
JAS-2 25 May 10:19:18 10:25:47 48° 97° (E) 10:31:29 435.800 - 435.900 CW/SSB, 435.910 FM
KITSAT 1 25 May 10:25:35 10:28:09 12° 262° (W) 10:30:44 435.175 FM
JAS-1B 25 May 10:42:34 10:45:36 14° 304° (NW) 10:48:32 435.800 - 435.900 CW/SSB
UOSAT-12 25 May 10:46:41 10:51:00 48° 117° (ESE) 10:55:23 437.025 FM, 437.400 FM
MaSat-1 25 May 10:50:58 10:54:03 40° 59° (ENE) 10:56:38 437.345 MHz
Oscar 11 25 May 11:08:00 11:12:21 66° 285° (WNW) 11:16:41 145.825 FM, Beacon 2401.500 USB

Developed and maintained by Chris Peat, Heavens-Above GmbH. Please read the updated FAQ before sending e-mail. Imprint. DLR
